Find OTC-P1-1

NORAD ID: 63351 Int'l Des: 2025-061 Owner: ORORA Country: D operational
LEOCIRCULARRETROGRADESSO

实时位置

正在加载3D地球...

关于 OTC-P1-1

正在加载描述...

即将过境

Passes for default location (London). Set your location on the main map for personalized predictions.

高度历史

Loading altitude history...

两行轨道根数

1 63351U 25061A 26104.87311822 .00002433 00000-0 14082-3 0 9997
2 63351 97.5598 80.7366 0020520 120.7426 239.5829 15.13025055 58013
Epoch: Apr 14, 2026 • Age: 6 hours

当前状态

高度 532.9 km
速度 7.60 km/s
星下点 15.22°N, 174.93°W
发射日期 Mar 26, 2025
运行时间 1 years
类型 other

技术详情

分类 Payload
质量 15.00 kg
干质量 15.00 kg
总质量 15.00 kg
长度 0.30 m
直径 0.20 m
跨度 0.40 m
形状 Box+2 pan
制造商 SPIREG
平台类型 Cubesat 6U
阶段状态 In Orbit
所有者/国家 ORORA/D

Most Searched